Vorticity
nan nan nan nan nan nan nan nan nan nan nan nan nan nan nan nan nan nan nan nan nan nan nan nan nan nan nan nan nan nan nan nan nan nan nan nan nan nan nan nan nan nan nan
nan 7 6 7 7 7 7 7 8 9 11 10 9 8 7 10 17 16 8 10 10 9 7 7 8 7 7 9 7 2 4 12 8 2 7 7 5 10 9 9 9 7 nan
nan 6 7 7 7 7 7 7 7 9 9 9 11 10 10 8 10 12 14 9 11 10 8 6 7 7 6 7 9 8 3 2 9 8 6 9 9 7 9 10 10 8 nan
nan 6 6 8 8 9 8 7 7 9 9 9 9 11 10 7 7 8 7 15 17 9 9 7 7 6 7 8 7 8 8 5 4 4 9 10 11 7 8 9 11 12 nan
nan 6 7 7 7 9 9 9 7 8 8 9 10 9 8 9 7 8 7 18 20 13 9 8 8 6 7 9 8 7 6 6 6 4 5 7 8 9 11 11 7 7 nan
nan 8 7 8 9 7 8 8 8 8 9 8 9 9 9 7 7 5 11 10 19 19 12 9 7 7 7 7 8 9 7 6 6 7 5 6 6 8 7 12 13 6 nan
nan 6 8 9 7 7 9 8 7 8 9 9 9 10 9 11 11 9 8 7 10 17 16 9 7 8 9 9 9 10 8 7 10 7 4 7 5 6 8 9 13 11 nan
nan 7 7 7 7 8 8 8 7 9 9 9 10 10 12 13 10 8 8 10 5 2 16 21 9 8 7 7 7 8 11 9 9 9 5 6 7 6 8 9 8 10 nan
nan 7 8 9 8 7 7 8 9 9 8 10 11 9 11 9 8 10 8 7 8 10 15 13 13 8 8 8 6 6 10 8 8 9 8 5 6 5 7 9 8 8 nan
nan 9 8 8 8 9 9 8 9 9 10 10 10 9 9 11 11 11 10 7 6 7 6 21 21 9 8 8 6 5 9 8 7 10 9 6 7 6 6 8 8 8 nan
nan 8 9 10 9 8 8 9 8 9 11 10 9 9 10 11 12 11 12 11 8 8 11 18 13 13 9 8 7 8 9 9 7 8 9 7 6 6 6 6 7 7 nan
nan 9 7 8 9 9 9 9 9 10 10 10 9 10 11 12 13 11 10 11 11 10 9 10 20 19 9 9 9 7 8 10 8 7 8 6 8 9 7 8 8 4 nan
nan 9 9 9 9 9 9 9 10 10 10 10 10 11 12 11 11 11 13 12 12 9 10 12 22 14 10 9 9 9 8 9 8 8 8 9 7 6 7 9 9 8 nan
nan 8 9 9 9 9 9 9 10 11 10 10 10 11 11 10 11 13 14 13 12 12 11 11 17 17 13 10 11 10 9 9 10 9 9 10 10 9 6 8 8 8 nan
nan 9 9 9 9 9 9 10 10 10 10 11 10 11 12 13 12 13 14 15 13 12 10 10 21 20 8 10 12 11 10 9 9 9 10 10 10 9 7 7 10 8 nan
nan 8 9 9 10 10 9 9 9 10 11 11 11 11 11 13 12 13 15 16 15 14 13 12 13 13 15 18 8 4 8 11 10 9 10 10 11 12 10 7 7 7 nan
nan 8 10 11 9 9 9 9 10 11 11 11 11 11 12 12 12 13 14 17 18 16 14 13 11 14 15 20 14 3 2 10 11 9 8 8 11 12 11 12 9 9 nan
nan 10 10 9 10 10 9 10 11 11 11 11 10 11 12 11 12 14 15 17 17 17 17 16 15 11 15 16 16 6 2 9 11 10 10 10 10 11 9 9 8 8 nan
nan 11 10 8 10 10 9 11 11 11 10 9 9 11 14 12 11 12 15 16 16 17 20 22 19 16 26 18 8 5 4 9 12 12 12 11 11 14 9 6 10 8 nan
nan 9 10 11 10 9 11 10 11 10 8 10 11 12 12 12 11 13 16 14 15 16 18 17 23 19 24 34 13 2 4 9 12 13 14 13 13 17 10 4 9 10 nan
nan 11 12 11 9 10 10 11 10 9 11 11 11 13 12 12 12 14 15 13 12 15 15 14 11 15 14 19 35 16 -0 11 11 10 11 15 18 16 11 4 7 12 nan
nan 12 12 10 10 11 10 9 9 10 11 12 12 11 13 15 10 11 13 14 13 13 14 14 12 9 10 8 23 35 17 9 12 10 10 18 17 12 10 5 9 11 nan
nan 10 10 10 10 10 9 9 9 11 12 11 12 12 13 12 11 12 13 13 13 11 12 14 10 10 14 8 9 20 33 21 5 14 16 17 12 7 10 11 10 4 nan
nan 10 10 10 9 9 10 10 10 11 12 12 12 11 10 11 15 14 12 11 12 13 11 13 12 11 12 13 15 15 17 18 20 15 13 14 13 10 9 12 9 7 nan
nan 10 10 9 8 9 10 10 10 12 13 13 12 12 11 10 11 13 11 10 10 15 20 17 17 12 15 14 22 27 21 19 19 13 11 14 13 13 10 11 13 13 nan
nan nan nan nan nan nan nan nan nan nan nan nan nan nan nan nan nan nan nan nan nan nan nan nan nan nan nan nan nan nan nan nan nan nan nan nan nan nan nan nan nan nan nan
CAPE
0 0 0 0 0 0 0 0 0 0 0 0 0 0 1 0 8 0 0 0 0 0 0 0 0 0 0 0 0 0 0 0 0 0 2 1 13 23 29 7 0 0 0
0 0 0 0 0 0 0 0 0 0 0 1 0 3 1 0 6 44 0 0 0 0 0 0 0 0 0 0 0 0 0 0 0 3 0 23 13 0 0 12 2 1 1
0 0 0 0 0 0 0 0 0 0 0 0 0 0 0 0 0 10 28 0 0 0 0 0 0 0 0 0 0 0 0 0 0 0 0 1 7 3 0 0 8 0 0
0 0 0 0 0 0 0 0 0 0 0 0 0 3 3 3 1 3 5 15 0 0 0 0 0 0 0 0 0 0 0 0 0 0 0 0 0 0 0 0 0 3 1
0 0 0 0 0 0 0 0 0 0 0 0 2 5 2 7 5 1 8 1 5 0 0 0 0 0 0 0 0 0 0 0 0 0 0 0 0 0 0 0 0 0 0
0 0 0 0 0 0 0 0 0 0 0 0 0 4 6 5 6 2 1 0 7 6 0 0 0 0 0 0 0 0 0 0 0 0 0 0 0 0 0 0 0 2 0
0 0 0 0 0 0 0 0 0 0 0 0 0 2 7 5 6 5 7 6 7 16 0 0 0 0 0 0 0 0 0 0 0 0 0 0 0 0 0 0 0 0 0
0 0 0 0 0 0 0 0 0 0 0 1 1 1 3 10 8 10 9 11 11 6 10 0 0 0 0 0 0 0 0 0 0 0 0 0 0 0 0 0 0 0 0
0 0 0 0 0 0 0 0 0 0 0 2 3 4 3 6 12 5 9 8 5 6 2 11 1 0 0 0 0 0 0 0 0 0 0 0 0 0 0 0 0 0 0
0 0 0 0 0 0 0 0 0 0 0 0 5 3 7 3 6 6 4 6 8 6 2 2 20 2 0 0 0 0 0 0 0 0 0 0 0 0 0 0 0 0 0
0 0 0 0 0 0 0 0 0 0 1 0 2 3 3 4 4 4 11 12 9 5 11 2 27 4 0 0 0 0 0 0 0 0 0 0 0 0 0 0 0 0 0
0 0 0 0 0 0 0 0 0 0 0 0 2 3 3 3 2 4 5 12 9 12 7 10 18 37 8 0 0 0 0 0 0 0 0 0 0 0 0 0 0 0 0
0 0 0 0 0 0 0 0 0 0 0 0 2 4 6 8 4 2 5 6 12 9 8 9 9 77 52 10 0 0 0 0 0 0 0 0 0 0 0 0 0 0 0
0 0 0 0 0 0 0 0 0 0 0 0 1 2 3 7 5 2 4 4 9 8 10 8 5 117 120 58 3 0 0 0 0 0 0 0 0 0 0 0 0 0 0
0 0 0 0 0 0 0 0 0 0 0 1 1 2 2 7 10 6 4 4 10 8 7 9 0 65 77 49 13 1 0 0 0 0 0 0 0 0 0 0 0 0 0
0 0 0 0 0 0 0 0 0 0 0 0 0 1 2 6 4 5 3 10 7 7 7 8 3 40 85 24 0 0 0 0 0 0 0 0 0 0 0 0 0 0 0
0 0 0 0 0 0 0 0 0 0 0 0 0 0 1 1 0 3 5 2 9 11 12 9 8 18 78 13 0 0 0 3 0 0 0 0 0 0 0 0 0 0 0
0 0 0 0 0 0 0 0 0 0 0 0 0 0 0 0 0 1 3 5 6 7 9 11 6 4 0 0 0 0 9 3 0 1 0 0 0 0 0 0 0 0 0
0 0 0 0 0 0 0 0 0 0 0 0 0 0 0 0 0 0 1 3 5 3 4 0 3 6 117 22 0 0 35 20 6 0 0 0 0 0 0 0 0 0 0
0 0 0 0 0 0 0 0 0 0 0 0 0 0 0 0 0 0 0 0 3 3 4 1 0 0 1 4 0 0 52 59 2 0 0 0 0 0 0 0 0 0 0
0 0 0 0 0 0 0 0 0 0 0 0 0 0 0 0 0 0 0 0 0 2 0 1 1 0 1 0 0 0 53 9 0 0 0 0 0 0 0 0 0 0 0
0 0 0 0 0 0 0 0 0 0 0 0 0 0 0 0 0 0 0 0 0 0 0 1 0 0 1 1 0 0 0 0 0 0 0 0 0 0 0 0 0 0 0
0 0 0 0 0 0 0 0 0 0 0 0 0 0 0 0 0 0 0 0 0 0 0 0 0 0 0 0 1 1 1 0 0 0 0 0 1 0 0 0 0 0 0
0 0 0 0 0 0 1 0 0 0 0 0 0 0 0 1 0 0 0 0 0 0 0 0 0 0 0 0 0 0 0 0 0 0 0 0 0 0 0 0 0 0 0
0 0 0 0 0 0 0 0 2 0 0 0 0 0 0 0 0 0 0 2 1 22 4 2 0 1 1 3 10 3 0 0 1 0 0 0 0 0 1 1 1 1 0
0 0 0 0 0 0 0 0 0 1 0 0 0 0 0 0 0 0 0 8 27 30 35 35 23 5 38 30 25 16 10 6 1 0 0 0 0 0 0 0 0 0 0